Regional Weather Roundup
Issued by NWS Newport/Morehead, NC

Current Version | Previous Version | Text Only | Print | Product List | Glossary On
Versions: 1 2 3 4 5 6 7 8 9 10 11 12 13 14 15 16 17 18 19 20 21 22 23 24 25 26 27 28 29 30 31 32 33 34 35 36 37 38 39 40 41 42 43 44 45 46 47 48 49 50
000 ASUS42 KMHX 211113 RWRMHX WEATHER ROUNDUP FOR EASTERN NORTH CAROLINA NATIONAL WEATHER SERVICE NEWPORT/MOREHEAD CITY NC 600 AM EST WED FEB 21 2018 NOTE: "FAIR" INDICATES FEW OR NO CLOUDS BELOW 12,000 FEET WITH NO SIGNIFICANT WEATHER AND/OR OBSTRUCTIONS TO VISIBILITY NCZ015>017-031-032-045>047-102-103-211200- NORTH COAST CITY SKY/WX TMP DP RH WIND PRES REMARKS EDENTON FOG 64 64 100 S3 30.47R VSB 1/4 ELIZABETH CITY FOG 63 63 100 S7 30.46S VSB 3/4 KITTY HAWK CLOUDY N/A N/A N/A CALM 30.46S FOG MANTEO FOG 57 57 100 SW3 30.48S VSB 1/4 $$ NCZ045>047-081-094-103-104-211200- CENTRAL COAST CITY SKY/WX TMP DP RH WIND PRES REMARKS FRISCO CLOUDY 61 61 100 CALM 30.49R FOG $$ NCZ095-097-098-100-101-211200- SOUTHERN COAST CITY SKY/WX TMP DP RH WIND PRES REMARKS BEAUFORT MOCLDY 63 62 97 S3 30.48R FOG CEDAR ISLAND NOT AVBL JACKSONVILLE MOCLDY 64 64 100 S5 30.46R FOG PINEY ISLAND NOT AVBL WILMINGTON FOG 56 56 100 CALM 30.47R VSB 1/4 $$ NCZ011>013-027>030-043-044-078>080-089-090>093-098-211200- COASTAL PLAIN CITY SKY/WX TMP DP RH WIND PRES REMARKS AHOSKIE CLOUDY 63 63 100 S5 30.45S FOG CLINTON CLOUDY 62 62 100 CALM 30.46S VSB 1/2 ELIZABETHTOWN NOT AVBL GOLDSBORO FOG 63 63 100 S3 30.45R VSB 1/2 GREENVILLE CLOUDY 64 64 100 S5 30.46R FOG HAVELOCK NOT AVBL KENANSVILLE FOG 61 61 100 CALM 30.47R VSB<1/4 KINSTON FOG 64 64 100 S5 30.47R VSB 1/2 NEW BERN FAIR 64 64 100 S8 30.47S RICHLANDS FAIR 64 63 96 S6 30.46R ROCKY MOUNT CLOUDY 64 63 96 S6 30.46R FOG WASHINGTON FOG 59 59 98 CALM 30.47R VSB<1/4 WHITEVILLE FAIR 59 58 97 CALM 30.45R FOG $$ AMZ130-135-150-152-154-156-158-170-250-252-270-ANZ085-086-088-633-658-670-211200- MARINE OBSERVATIONS STATION/POSITION TIME TEMP WIND PRES WAVE SWELL AIR SEA DIR/SP/G HT/PER HT/PER (UTC) (F) (DEG/KT/KT) (MB) (FT/S) (FT/S) CHESAPEAKE LIGHT NOT AVBL 64 E VA BEACH 1050 54 51 200/ 8/ 10 1032.3 3/12 3/12 DUCK 1042 61 44 200/ 10/ 11 1031.2 2 E DUCK 1100 45 N/A 3/13 2/13 OREGON INLET 1042 59 56 190/ 7/ 8 1032.0 13E OREGON INLT 1048 47 N/A 4/11 3/11 HATTERAS CG 1042 64 59 170/ 3/ 3 1032.2 DIAMOND BUOY 1050 72 71 180/ 12/ 14 1032.7 4/11 3/11 CAPE LOOKOUT 1100 170/ 4/ 5 1032.4 BEAUFORT LAB 1042 61 57 170/ 2/ 3 1032.0 30 SE NEW RVR IN 1008 70 69 190/ 8/ 10 1031.7 30 SE NEW RVR IN 1100 69 N/A 4/ 5 2/11 27 SE WRIGHTSVLE NOT AVBL 5 SE WRIGHTSVLE 1008 60 56 170/ 2/ 4 1031.1 225 S CAPE HAT 1050 72 74 120/ 14/ 16 1032.3 5/11 3/11 41 SE CHARLESTON 1050 70 68 140/ 4/ 6 1030.5 5/ 7 5/ 7 $$

USA.gov is the U.S. government's official web portal to all federal, state and local government web resources and services.